Location: Arthies
(49.0947°N, 1.7897°E)
Time: 18:24:07
(UTC+00:00)

Daily predictions for brighter satellites

Satellite Brightness Start Highest point End
(mag) Time Altitude Azimuth Time Altitude Azimuth Time Altitude Azimuth
Okean 3 3.7 18:38:13 10° N 18:42:20 49° ENE 18:46:26 10° SSE
Okean 1-7 3.2 18:39:13 10° N 18:43:30 51° ENE 18:47:44 10° SSE
Cosmos 1666 Rocket 4.1 18:41:00 10° SSW 18:45:22 65° WNW 18:49:42 10° N
Cosmos 1933 Rocket 4.0 18:42:04 10° SSE 18:46:04 38° E 18:50:06 10° NNE
Iridium 4 Rocket 4.2 18:43:11 10° NNE 18:46:31 22° ENE 18:49:48 10° SE
Cosmos 1624 Rocket 4.2 18:41:26 10° S 18:46:34 53° ESE 18:51:46 10° NNE
Cosmos 2098 Rocket 4.5 18:43:29 10° SE 18:48:11 33° E 18:53:43 10° NNE
Meteor 1-11 Rocket 4.3 18:43:42 10° SSW 18:49:36 70° WNW 18:55:25 10° N
CSL-04 Rocket 4.2 18:44:42 10° SE 18:49:50 40° ENE 18:54:57 10° N
Cosmos 2322 Rocket 4.0 18:45:14 10° NW 18:50:23 36° WSW 18:55:30 10° S
In-Cosmos 22 4.2 18:44:51 10° N 18:50:30 71° ENE 18:56:13 10° SSE
Exosat Rocket 3.9 18:47:11 10° S 18:52:09 52° ESE 18:58:25 10° NNE
KORONAS-FOTON 3.8 18:48:55 10° N 18:52:41 58° ENE 18:56:27 10° SSE
Cosmos 2237 Rocket 3.3 18:47:58 10° NNW 18:52:49 28° NE 18:57:25 11° ESE
Cosmos 1842 3.5 18:49:02 10° NNW 18:52:51 70° W 18:56:37 10° S
Landsat 7 4.2 18:49:17 10° SE 18:53:43 42° ENE 18:58:09 10° N
Cosmos 1420 Rocket 4.1 18:48:39 10° S 18:53:45 57° ESE 18:58:51 10° NNE
GEOS 3 Rocket 3.7 18:49:19 10° NE 18:54:43 73° SE 19:00:06 10° SW
Cosmos 1869 Rocket 4.5 18:52:03 10° SE 18:55:37 26° E 18:59:13 10° NNE
Meteor 1-21 4.3 18:50:06 10° N 18:55:40 59° ENE 19:01:13 10° SSE
Cosmos 1459 Rocket 3.9 18:49:54 10° N 18:55:55 64° ENE 19:01:56 10° SSE
CZ-4C R/B 4.1 18:52:15 10° NW 18:57:21 25° NNE 19:03:22 10° ENE
USA 305 4.0 18:55:52 10° WNW 18:59:20 34° SW 19:02:48 10° SSE
Cosmos 1725 Rocket 4.2 18:57:20 10° N 19:03:17 47° ENE 19:09:14 10° SSE
USA 307 4.2 19:00:05 10° WNW 19:03:28 30° SW 19:06:51 10° SSE
Cosmos 1633 Rocket 4.1 19:00:09 10° SSW 19:04:25 51° WNW 19:08:45 10° N
Resurs 01 Rocket 2.8 19:03:03 12° ESE 19:06:07 25° ENE 19:09:43 10° N
Cosmos 2322 3.7 19:01:52 10° NNW 19:07:35 89° ENE 19:13:15 10° SSE
CZ-4B R/B 3.6 19:01:57 10° S 19:07:37 71° WSW 19:13:16 10° NNW
Lacrosse 5 rocket 3.5 19:06:59 10° SE 19:07:26 11° SE 19:07:26 11° SE
Cosmos 1975 2.9 19:06:04 10° S 19:09:53 51° E 19:13:46 10° NNE
Cosmos 1707 2.9 19:06:56 10° NNW 19:10:45 75° W 19:14:30 10° S
Cosmos 676 Rocket 4.0 19:05:36 10° NNW 19:10:51 88° WSW 19:16:05 10° SSE
Cosmos 1452 Rocket 4.3 19:06:34 10° SSE 19:11:02 29° E 19:15:32 10° NE
SJ-6B 2.7 19:08:14 10° SSE 19:12:09 71° ENE 19:16:00 10° N
Cosmos 1805 4.1 19:10:27 10° SSE 19:13:43 28° E 19:17:01 10° NNE
Cosmos 1980 4.3 19:08:50 10° NNW 19:14:09 39° NE 19:18:13 16° ESE
Cosmos 2333 Rocket 3.3 19:09:35 10° NW 19:15:05 46° WSW 19:20:32 10° S
USA 215 3.8 19:10:21 10° ENE 19:16:46 60° NNW 19:23:10 10° W
Cosmos 2219 Rocket 2.7 19:11:41 10° NNW 19:17:19 64° WSW 19:22:55 10° SSE
Cosmos 1802 Rocket 4.0 19:11:38 10° N 19:17:54 74° E 19:24:12 10° SSE
ISS -3.5 19:15:49 10° W 19:19:09 64° NNW 19:21:37 17° ENE
Cosmos 1703 Rocket 3.7 19:15:37 10° NNW 19:20:07 83° W 19:24:32 10° S
SL-27 R/B 2.2 19:17:19 10° SSW 19:20:37 86° ESE 19:23:53 10° NNE
Meteor 2-9 Rocket 4.5 19:15:39 10° SSW 19:21:09 71° WNW 19:26:33 10° N
IRS-1C Rocket 4.4 19:16:24 11° SE 19:21:17 46° ENE 19:26:19 10° N
IGS 5A 3.8 19:17:23 10° S 19:21:28 67° WSW 19:25:36 10° NNW
Cosmos 1674 2.9 19:18:09 10° NNW 19:21:52 68° W 19:25:32 10° S
CSL-04 Debris 4.1 19:19:52 10° SSE 19:25:16 80° ENE 19:30:45 10° NNW
Cosmos 1741 Rocket 4.2 19:20:38 10° NNW 19:25:44 51° ENE 19:29:30 18° SE
Resurs 1-3 3.5 19:21:55 10° SSE 19:26:15 74° ENE 19:30:38 10° N
SL-14 R/B 3.6 19:22:39 10° N 19:26:20 41° ENE 19:28:35 20° SE
COSMOS 2428 2.8 19:20:36 10° NNW 19:26:23 86° WSW 19:32:07 10° SSE
USA 186 1.7 19:27:14 10° S 19:30:19 78° W 19:33:27 10° NNW
Spot 1 4.4 19:25:34 10° NNE 19:30:29 88° ESE 19:35:36 10° SSW
BREEZE M DEB (TANK) 1.6 19:28:37 10° WSW 19:31:13 87° S 19:31:58 36° E
Okean-O 2.6 19:29:27 12° SSE 19:33:31 64° ENE 19:37:56 10° N
Cosmos 2016 Rocket 3.9 19:27:49 10° N 19:33:58 81° E 19:40:06 10° SSE
Cosmos 968 Rocket 4.4 19:30:38 10° N 19:35:12 30° NE 19:37:18 23° E
Cosmos 2297 Rocket 2.9 19:31:02 10° SSE 19:35:46 28° ESE 19:40:32 10° NE
Cosmos 2123 Rocket 3.9 19:31:18 10° S 19:37:33 75° E 19:43:54 10° NNE
Cosmos 1733 Rocket 4.0 19:38:38 26° E 19:38:50 26° E 19:42:26 10° NNE
Cosmos 1726 2.1 19:35:56 10° S 19:39:20 50° E 19:42:46 10° NNE
CZ-4 R/B 3.1 19:36:33 10° SSW 19:39:59 32° W 19:43:30 10° NNW
Okean O Rocket 3.0 19:39:32 10° SSW 19:43:41 40° W 19:47:52 10° NNW
NOSS 0 Rocket 3.9 19:37:34 10° NNW 19:43:48 86° ENE 19:48:33 18° SSE
SL-08 R/B 4.5 19:37:59 10° N 19:44:25 83° E 19:50:43 10° S
CARTOSAT-1 4.3 19:43:21 29° E 19:44:32 34° ENE 19:48:26 10° N
Cosmos 2242 Rocket 3.7 19:40:34 10° NNW 19:45:10 80° W 19:49:44 10° S
Ariane Rocket 4.0 19:47:24 26° E 19:48:44 29° ENE 19:53:04 10° N
Helios 1B 4.4 19:45:03 10° NNE 19:49:23 72° ESE 19:53:42 10° S
Cosmos 2227 Rocket 3.7 19:53:55 18° ENE 19:53:55 18° ENE 19:55:53 10° NE
Cosmos 1733 3.1 19:49:42 10° SSW 19:53:28 82° W 19:57:16 10° N
Cosmos 1867 3.7 19:50:25 10° SSW 19:55:37 49° ESE 20:00:53 10° NE
Okean 2 3.5 19:55:25 10° NNW 19:59:29 73° W 20:02:24 18° S
SL-16 R/B 3.2 19:56:32 10° NNW 20:01:36 31° NE 20:03:15 27° ENE
SPOT 3 Rocket 4.5 20:03:14 29° E 20:04:01 30° ENE 20:08:32 10° N
NOSS 3-2 (A) 4.4 19:59:42 10° NW 20:07:04 63° SW 20:13:45 18° SSE
ATLAS 3B R/B 4.5 20:03:49 10° NW 20:09:47 26° N 20:15:59 10° ENE
NOSS 3-2 (C) 4.1 20:09:35 10° NW 20:17:01 85° SW 20:21:40 31° SE
H-2A R/B 3.0 20:18:42 44° ENE 20:18:42 44° ENE 20:22:53 10° N
Meteor 2-10 4.4 20:15:10 10° SSW 20:20:08 62° WNW 20:25:12 10° N
CENTAUR R/B 3.8 20:12:28 10° NW 20:20:27 54° WSW 20:27:29 17° S
Geosat 4.5 20:18:43 26° S 20:21:26 56° WSW 20:26:24 10° NW
SJ 16-02 3.2 20:20:17 10° N 20:22:49 18° NE 20:22:49 18° NE
Iridium 4 Rocket 4.5 20:22:44 10° NNW 20:26:36 35° W 20:30:22 10° SSW
Cosmos 2233 Rocket 4.3 20:22:43 10° NNW 20:28:49 66° W 20:33:52 16° S
USA 238 DEB 3.9 20:23:12 10° NW 20:30:31 86° SW 20:33:45 39° SE
USA 238 3.9 20:23:18 10° NW 20:30:37 86° SW 20:33:50 39° SE
SPOT 1/Viking Rocket 4.2 20:27:33 19° S 20:31:07 54° W 20:36:14 10° NNW
Meteor 1-15 Rocket 4.4 20:31:02 50° ESE 20:31:19 51° E 20:36:59 10° NNE
Cosmos 1766 3.6 20:32:37 56° N 20:32:37 56° N 20:35:40 10° N
Cosmos 2237 Rocket 2.4 20:31:44 10° NNW 20:37:20 64° WSW 20:39:16 40° S
Cosmos 1110 Rocket 4.1 20:33:45 10° SSW 20:38:57 76° WNW 20:44:10 10° NNE
Terra 2.8 20:40:22 34° NE 20:40:22 34° NE 20:43:54 10° N
Meteor 1-12 Rocket 4.2 20:39:36 59° ESE 20:40:05 61° E 20:45:44 10° NNE
Cosmos 2034 Rocket 4.4 20:35:15 10° N 20:41:07 42° ENE 20:41:13 42° ENE
Resurs 01 Rocket 2.6 20:40:35 28° SSW 20:42:23 43° W 20:46:37 10° NNW
Landsat 5 4.4 20:40:59 10° N 20:44:39 44° WNW 20:47:02 20° SW
Lacrosse 5 rocket 3.7 20:42:13 10° SW 20:42:54 14° SW 20:42:54 14° SW
CZ-4C R/B 3.3 20:40:52 10° NW 20:47:27 49° NE 20:49:46 39° E
ATLAS CENTAUR R/B 4.1 20:32:15 10° SW 20:48:06 88° NW 20:54:48 13° NE
MetOp-B 4.1 20:50:58 59° S 20:51:58 77° WSW 20:57:22 10° NNW
Cosmos 1452 Rocket 4.5 20:47:51 10° SW 20:52:55 47° WNW 20:58:02 10° NNE
SPOT 5 3.0 20:53:49 62° NNE 20:53:49 62° NNE 20:57:59 10° N
MetOp-A 4.4 20:52:25 46° SSW 20:53:48 62° WSW 20:59:00 10° NNW
Meteor 1-24 Rocket 3.7 20:50:10 10° N 20:56:05 73° ENE 20:56:26 71° ESE
ISS -1.6 20:52:53 10° WNW 20:54:34 26° WNW 20:54:34 26° WNW
Cosmos 1072 Rocket 4.4 20:50:29 10° N 20:56:56 81° E 20:57:57 65° SSE
Cosmos 1331 Rocket 4.4 20:51:53 10° SW 20:56:58 60° WNW 21:02:06 10° NNE
FALCON 9 R/B 4.0 20:41:39 10° WSW 20:57:12 33° SSW 20:58:48 31° S
USA 215 4.1 20:55:21 22° ENE 20:59:13 45° N 21:05:21 10° WNW
ADEOS Rocket 3.1 21:05:22 65° E 21:05:54 68° ENE 21:12:50 10° N
Cosmos 1943 4.3 21:04:40 10° NNW 21:09:15 31° NE 21:09:15 31° NE
Cosmos 968 Rocket 4.2 21:12:15 10° NNW 21:17:11 45° WSW 21:17:19 45° WSW
Meteor 2-5 Rocket 3.8 21:13:35 10° NNW 21:19:22 72° W 21:19:35 71° WSW
Cosmos 2297 Rocket 2.8 21:13:58 10° SW 21:19:30 55° NW 21:25:04 10° NNE
ERS-1 Rocket 3.4 21:25:22 58° NW 21:25:22 58° NW 21:29:27 10° NNW
Cosmos 2219 4.4 21:28:49 32° NNE 21:28:49 32° NNE 21:31:44 10° NNE
Cosmos 1464 Rocket 4.1 21:20:12 10° NNW 21:26:32 70° W 21:27:08 66° SW
Ariane Rocket 3.8 21:27:34 45° W 21:27:34 45° W 21:32:22 10° NNW
Cosmos 2227 Rocket 2.6 21:35:33 62° NNW 21:35:33 62° NNW 21:40:43 10° NNE
Spot 2 Rocket 4.3 21:39:21 50° NW 21:39:21 50° NW 21:43:24 10° NNW
SPOT 3 Rocket 4.5 21:43:51 44° WNW 21:43:51 44° WNW 21:48:17 10° NNW
SL-16 R/B 2.9 21:40:28 10° NW 21:45:08 50° WNW 21:45:08 50° WNW
SJ 16-02 3.6 21:58:00 10° NNW 21:59:43 23° NNW 21:59:43 23° NNW
ATLAS 3B R/B 3.7 21:55:34 10° NW 22:02:35 41° NNE 22:03:35 39° NE
Terra 3.9 22:19:07 23° NW 22:19:07 23° NW 22:21:25 10° NNW
Cosmos 2263 Rocket 4.3 22:30:26 19° NNE 22:30:26 19° NNE 22:31:55 10° NNE
CZ-4C R/B 3.4 22:29:15 10° NW 22:34:56 53° W 22:34:56 53° W
USA 215 3.8 22:42:40 53° NNW 22:42:40 53° NNW 22:48:04 10° WNW
ATLAS CENTAUR R/B 4.1 22:53:27 10° W 23:03:46 45° NNW 23:04:24 44° N
ATLAS 2AS CENTAUR R/B 4.2 23:13:02 29° NE 23:13:02 29° NE 23:16:13 10° NE
Cosmos 2344 4.1 23:21:14 10° NW 23:28:51 76° NW 23:28:51 76° NW
